TimeMST,TemperatureF,Dew PointF,Humidity,Sea Level PressureIn,VisibilityMPH,Wind Direction,Wind SpeedMPH,Gust SpeedMPH,PrecipitationIn,Events,Conditions,WindDirDegrees,DateUTC
12:15 AM,17.6,-5.8,35,-9999,10.0,West,9.2,-,N/A,,Overcast,270,2012-12-30 07:15:00
12:35 AM,19.4,-5.8,33,-9999,10.0,West,9.2,-,N/A,,Overcast,270,2012-12-30 07:35:00
12:55 AM,17.6,-4.0,38,-9999,10.0,West,9.2,-,N/A,,Overcast,260,2012-12-30 07:55:00
1:15 AM,15.8,-4.0,41,-9999,10.0,West,8.1,-,N/A,,Overcast,260,2012-12-30 08:15:00
1:35 AM,15.8,-4.0,41,-9999,10.0,West,10.4,-,N/A,,Scattered Clouds,260,2012-12-30 08:35:00
1:55 AM,17.6,-4.0,38,-9999,10.0,West,8.1,-,N/A,,Scattered Clouds,270,2012-12-30 08:55:00
2:15 AM,19.4,-0.4,42,-9999,10.0,West,12.7,18.4,N/A,,Scattered Clouds,280,2012-12-30 09:15:00
2:35 AM,19.4,3.2,49,-9999,10.0,West,13.8,20.7,N/A,,Scattered Clouds,280,2012-12-30 09:35:00
2:55 AM,19.4,5.0,54,-9999,10.0,West,12.7,21.9,N/A,,Clear,280,2012-12-30 09:55:00
3:15 AM,19.4,5.0,54,-9999,10.0,West,11.5,20.7,N/A,,Clear,270,2012-12-30 10:15:00
3:35 AM,19.4,5.0,54,-9999,10.0,West,10.4,16.1,N/A,,Clear,270,2012-12-30 10:35:00
3:55 AM,19.4,5.0,54,-9999,10.0,West,11.5,-,N/A,,Clear,270,2012-12-30 10:55:00
4:15 AM,19.4,5.0,54,-9999,10.0,West,10.4,-,N/A,,Clear,270,2012-12-30 11:15:00
4:35 AM,17.6,5.0,58,-9999,10.0,West,11.5,16.1,N/A,,Clear,260,2012-12-30 11:35:00
4:55 AM,17.6,5.0,58,-9999,10.0,West,13.8,19.6,N/A,,Mostly Cloudy,260,2012-12-30 11:55:00
5:15 AM,17.6,6.8,63,-9999,10.0,West,15.0,-,N/A,,Overcast,260,2012-12-30 12:15:00
5:35 AM,17.6,8.6,68,-9999,10.0,WSW,18.4,24.2,N/A,,Scattered Clouds,250,2012-12-30 12:35:00
5:55 AM,17.6,8.6,68,-9999,10.0,WSW,21.9,25.3,N/A,,Clear,250,2012-12-30 12:55:00
6:15 AM,17.6,8.6,68,-9999,10.0,WSW,20.7,27.6,N/A,,Clear,250,2012-12-30 13:15:00
6:35 AM,17.6,8.6,68,-9999,10.0,West,18.4,24.2,N/A,,Clear,260,2012-12-30 13:35:00
6:55 AM,17.6,8.6,68,-9999,10.0,WSW,16.1,-,N/A,,Clear,250,2012-12-30 13:55:00
7:15 AM,17.6,6.8,63,-9999,10.0,West,11.5,21.9,N/A,,Clear,280,2012-12-30 14:15:00
7:55 AM,17.6,5.0,58,-9999,10.0,NW,9.2,-,N/A,,Clear,320,2012-12-30 14:55:00
8:15 AM,17.6,5.0,58,-9999,10.0,Calm,Calm,-,N/A,,Clear,0,2012-12-30 15:15:00
8:35 AM,17.6,5.0,58,-9999,10.0,Calm,Calm,-,N/A,,Clear,0,2012-12-30 15:35:00
8:55 AM,17.6,3.2,53,-9999,10.0,Calm,Calm,-,N/A,,Clear,0,2012-12-30 15:55:00
9:15 AM,17.6,3.2,53,-9999,10.0,Calm,Calm,-,N/A,,Clear,0,2012-12-30 16:15:00
9:35 AM,17.6,3.2,53,-9999,10.0,Calm,Calm,-,N/A,,Clear,0,2012-12-30 16:35:00
9:55 AM,19.4,5.0,54,-9999,10.0,Calm,Calm,-,N/A,,Clear,0,2012-12-30 16:55:00
10:15 AM,19.4,8.6,63,-9999,10.0,Calm,Calm,-,N/A,,Clear,0,2012-12-30 17:15:00
10:35 AM,19.4,8.6,63,-9999,10.0,Calm,Calm,-,N/A,,Clear,0,2012-12-30 17:35:00
10:55 AM,17.6,8.6,68,-9999,10.0,SSW,4.6,-,N/A,,Clear,210,2012-12-30 17:55:00
11:15 AM,17.6,10.4,73,-9999,10.0,SSW,6.9,-,N/A,,Clear,210,2012-12-30 18:15:00
11:35 AM,17.6,10.4,73,-9999,10.0,WSW,6.9,-,N/A,,Clear,240,2012-12-30 18:35:00
11:55 AM,19.4,8.6,63,-9999,10.0,WSW,5.8,-,N/A,,Clear,250,2012-12-30 18:55:00
12:15 PM,19.4,8.6,63,-9999,10.0,WSW,6.9,-,N/A,,Scattered Clouds,250,2012-12-30 19:15:00
12:35 PM,21.2,6.8,54,-9999,10.0,SW,4.6,-,N/A,,Clear,230,2012-12-30 19:35:00
12:55 PM,19.4,10.4,68,-9999,10.0,SW,6.9,-,N/A,,Clear,220,2012-12-30 19:55:00
1:15 PM,21.2,8.6,58,-9999,10.0,SW,4.6,-,N/A,,Clear,230,2012-12-30 20:15:00
1:35 PM,21.2,8.6,58,-9999,10.0,SW,3.5,-,N/A,,Clear,220,2012-12-30 20:35:00
1:55 PM,21.2,8.6,58,-9999,10.0,SW,4.6,-,N/A,,Mostly Cloudy,230,2012-12-30 20:55:00
2:15 PM,21.2,6.8,54,-9999,10.0,WSW,5.8,-,N/A,,Scattered Clouds,250,2012-12-30 21:15:00
2:35 PM,23.0,8.6,54,-9999,10.0,Calm,Calm,-,N/A,,Clear,0,2012-12-30 21:35:00
2:55 PM,21.2,8.6,58,-9999,10.0,SSW,3.5,-,N/A,,Clear,200,2012-12-30 21:55:00
3:15 PM,17.6,8.6,68,-9999,10.0,SSW,4.6,-,N/A,,Clear,210,2012-12-30 22:15:00
3:35 PM,17.6,8.6,68,-9999,10.0,Calm,Calm,-,N/A,,Clear,0,2012-12-30 22:35:00
3:55 PM,17.6,8.6,68,-9999,10.0,Calm,Calm,-,N/A,,Clear,0,2012-12-30 22:55:00
4:15 PM,19.4,8.6,63,-9999,10.0,Calm,Calm,-,N/A,,Clear,0,2012-12-30 23:15:00
4:35 PM,17.6,8.6,68,-9999,10.0,North,3.5,-,N/A,,Clear,350,2012-12-30 23:35:00
4:55 PM,15.8,8.6,73,-9999,10.0,North,3.5,-,N/A,,Clear,360,2012-12-30 23:55:00
5:15 PM,15.8,6.8,68,-9999,10.0,Calm,Calm,-,N/A,,Clear,0,2012-12-31 00:15:00
5:35 PM,14.0,6.8,73,-9999,10.0,North,3.5,-,N/A,,Clear,350,2012-12-31 00:35:00
5:55 PM,12.2,3.2,67,-9999,10.0,NNW,8.1,-,N/A,,Clear,330,2012-12-31 00:55:00
6:15 PM,12.2,3.2,67,-9999,10.0,NNW,6.9,-,N/A,,Clear,340,2012-12-31 01:15:00
6:35 PM,12.2,3.2,67,-9999,10.0,NW,8.1,-,N/A,,Clear,320,2012-12-31 01:35:00
6:55 PM,10.4,3.2,73,-9999,10.0,NW,6.9,-,N/A,,Clear,320,2012-12-31 01:55:00
7:15 PM,12.2,3.2,67,-9999,10.0,NNW,4.6,-,N/A,,Clear,340,2012-12-31 02:15:00
7:35 PM,12.2,3.2,67,-9999,10.0,North,8.1,-,N/A,,Clear,350,2012-12-31 02:35:00
7:55 PM,12.2,3.2,67,-9999,10.0,NNW,9.2,-,N/A,,Clear,340,2012-12-31 02:55:00
8:15 PM,12.2,3.2,67,-9999,10.0,NNW,11.5,-,N/A,,Clear,330,2012-12-31 03:15:00
8:35 PM,12.2,3.2,67,-9999,10.0,NNW,11.5,-,N/A,,Clear,330,2012-12-31 03:35:00
8:55 PM,12.2,3.2,67,-9999,10.0,NNW,8.1,-,N/A,,Clear,330,2012-12-31 03:55:00
9:15 PM,12.2,3.2,67,-9999,10.0,NNW,11.5,-,N/A,,Scattered Clouds,340,2012-12-31 04:15:00
9:35 PM,12.2,3.2,67,-9999,10.0,NNW,10.4,-,N/A,,Clear,330,2012-12-31 04:35:00
9:55 PM,12.2,3.2,67,-9999,10.0,NNW,10.4,-,N/A,,Scattered Clouds,330,2012-12-31 04:55:00
10:15 PM,12.2,3.2,67,-9999,10.0,NNW,10.4,-,N/A,,Scattered Clouds,330,2012-12-31 05:15:00
10:35 PM,12.2,3.2,67,-9999,10.0,NW,9.2,-,N/A,,Scattered Clouds,320,2012-12-31 05:35:00
10:55 PM,12.2,3.2,67,-9999,10.0,NW,9.2,-,N/A,,Clear,320,2012-12-31 05:55:00
11:15 PM,12.2,3.2,67,-9999,10.0,NNW,8.1,-,N/A,,Clear,330,2012-12-31 06:15:00
11:35 PM,14.0,3.2,62,-9999,10.0,NNW,5.8,-,N/A,,Clear,330,2012-12-31 06:35:00
11:55 PM,12.2,3.2,67,-9999,10.0,NNW,6.9,-,N/A,,Clear,330,2012-12-31 06:55:00